period_start,C,m1,H,J0,J1,J2,J3,J4,J5,JA,JB,JC,JD,JJ,JK,JN,#
2014-06-21 00:02:42,0.00,0.15,0.00,22.64,27.04,29.49,9.56,39.58,1012.45,2040.99,3414.86,3287.00,3573.03,500.05,495.40,12.51,0000 0000 0000 0000 000000
2014-06-21 00:07:43,0.00,0.15,0.00,22.67,27.03,29.48,9.54,39.64,1012.61,2040.99,3414.77,3286.99,3573.05,499.69,494.89,12.55,0000 0000 0000 0000 000000
2014-06-21 00:12:44,0.02,0.15,0.00,22.65,27.02,29.48,9.55,39.54,1012.28,2040.99,3414.05,3286.83,3572.99,499.84,495.04,12.59,0000 0000 0000 0000 000000
2014-06-21 00:17:45,-0.00,0.15,0.00,22.66,27.02,29.47,9.55,39.48,1012.29,2040.99,3414.03,3286.95,3572.98,500.01,495.16,12.63,0000 0000 0000 0000 000000
2014-06-21 00:22:46,0.00,0.15,0.00,22.66,27.02,29.46,9.59,39.67,1012.24,2040.99,3414.03,3286.98,3572.99,500.02,495.06,12.68,0000 0000 0000 0000 000000
2014-06-21 00:27:47,0.00,0.15,0.00,22.70,27.02,29.47,9.50,39.59,1012.22,2040.99,3414.07,3286.98,3572.99,499.74,494.82,12.72,0000 0000 0000 0000 000000
2014-06-21 00:32:48,0.00,0.15,0.00,22.66,27.02,29.46,9.57,39.56,1012.22,2040.99,3414.06,3286.98,3573.00,500.35,495.46,12.76,0000 0000 0000 0000 000000
2014-06-21 00:37:49,0.00,0.15,0.00,22.68,27.01,29.46,9.54,39.68,1012.05,2040.99,3414.01,3286.96,3573.00,500.26,495.46,12.80,0000 0000 0000 0000 000000
2014-06-21 00:42:51,0.00,0.15,0.00,22.70,27.00,29.46,9.57,39.59,1011.74,2040.99,3414.03,3286.96,3572.99,499.78,494.62,12.84,0000 0000 0000 0000 000000
2014-06-21 00:47:52,0.00,0.15,0.00,22.69,27.00,29.46,9.53,39.60,1011.73,2041.00,3414.01,3286.96,3572.98,499.66,494.57,12.88,0000 0000 0000 0000 000000
2014-06-21 00:52:52,0.00,0.15,0.00,22.66,27.00,29.45,9.60,39.52,1011.73,2041.01,3414.00,3286.97,3572.99,500.18,494.98,12.93,0000 0000 0000 0000 000000
2014-06-21 00:57:53,0.00,0.15,0.00,22.69,27.00,29.45,9.50,39.44,1011.73,2041.00,3414.00,3286.95,3572.98,499.79,494.91,12.97,0000 0000 0000 0000 000000
2014-06-21 01:02:54,0.00,0.15,0.00,22.67,27.00,29.44,9.61,39.61,1011.67,2041.01,3414.00,3286.97,3572.99,500.29,495.08,13.01,0000 0000 0000 0000 000000
2014-06-21 01:07:55,0.00,0.15,0.00,22.70,27.00,29.45,9.67,39.55,1011.44,2041.01,3414.00,3286.97,3572.99,500.52,495.04,13.05,0000 0000 0000 0000 000000
2014-06-21 01:12:56,0.00,0.15,0.00,22.69,27.00,29.44,9.56,39.47,1011.50,2041.01,3414.00,3286.95,3572.98,500.28,494.94,13.09,0000 0000 0000 0000 000000
2014-06-21 01:17:57,-0.00,0.15,0.00,22.71,26.99,29.44,9.60,39.33,1011.52,2041.01,3414.00,3286.96,3572.99,499.86,494.63,13.13,0000 0000 0000 0000 000000
2014-06-21 01:22:58,0.01,0.15,0.00,22.68,26.98,29.44,9.57,39.47,1011.40,2041.02,3413.99,3286.89,3572.98,499.89,494.49,13.18,0000 0000 0000 0000 000000
2014-06-21 01:27:59,-0.00,0.15,0.00,22.68,26.98,29.43,9.49,39.52,1011.26,2041.02,3413.99,3286.95,3572.98,499.63,494.29,13.22,0000 0000 0000 0000 000000
2014-06-21 01:33:00,0.00,0.15,0.00,22.69,26.97,29.43,9.61,39.56,1011.26,2041.03,3413.99,3286.87,3572.98,500.10,494.74,13.26,0000 0000 0000 0000 000000
2014-06-21 01:38:01,-0.00,0.15,0.00,22.69,26.97,29.43,9.59,39.47,1011.58,2041.01,3413.98,3286.84,3572.98,500.01,494.90,13.30,0000 0000 0000 0000 000000
2014-06-21 01:43:03,0.02,0.16,0.00,22.69,26.97,29.42,9.52,39.51,1011.48,2041.02,3413.95,3286.41,3572.81,499.97,494.92,13.34,0000 0000 0000 0000 000000
2014-06-21 01:48:04,0.01,0.16,0.00,22.67,26.97,29.42,9.55,39.34,1011.25,2041.01,3413.89,3286.15,3572.66,500.04,494.70,13.39,0000 0000 0000 0000 000000
2014-06-21 01:53:05,0.01,0.16,0.00,22.68,26.97,29.43,9.58,39.54,1011.26,2041.02,3413.76,3286.12,3572.55,500.27,494.67,13.43,0000 0000 0000 0000 000000
2014-06-21 01:58:06,0.01,0.16,0.00,22.67,26.97,29.44,9.55,39.50,1011.26,2041.01,3413.37,3286.07,3572.27,499.91,494.44,13.47,0000 0000 0000 0000 000000
2014-06-21 02:03:07,0.01,0.16,0.00,22.65,26.97,29.42,9.53,39.55,1011.28,2041.01,3413.06,3286.01,3572.07,499.80,494.54,13.51,0000 0000 0000 0000 000000
2014-06-21 02:08:08,-0.00,0.16,0.00,22.68,26.97,29.41,9.56,39.47,1011.26,2041.02,3413.00,3286.00,3572.02,499.96,494.72,13.55,0000 0000 0000 0000 000000
2014-06-21 02:13:09,-0.00,0.16,0.00,22.71,26.97,29.43,9.56,39.51,1011.25,2041.01,3413.00,3286.00,3572.01,499.99,494.65,13.60,0000 0000 0000 0000 000000
2014-06-21 02:18:10,-0.00,0.16,0.00,22.69,26.96,29.42,9.58,39.43,1011.21,2041.03,3413.00,3286.00,3572.01,500.26,494.85,13.64,0000 0000 0000 0000 000000
2014-06-21 02:23:11,0.00,0.16,0.00,22.68,26.95,29.43,9.61,39.49,1011.05,2041.02,3412.99,3286.00,3572.00,500.40,494.93,13.68,0000 0000 0000 0000 000000
2014-06-21 02:28:12,0.00,0.16,0.00,22.67,26.95,29.41,9.54,39.23,1011.05,2041.02,3412.97,3285.99,3572.00,499.99,494.63,13.72,0000 0000 0000 0000 000000
2014-06-21 02:33:14,0.00,0.16,0.00,22.70,26.95,29.42,9.60,39.37,1010.99,2041.04,3412.93,3285.99,3572.00,500.01,494.41,13.76,0000 0000 0000 0000 000000
2014-06-21 02:38:14,0.01,0.16,0.00,22.67,26.95,29.41,9.52,39.41,1010.88,2041.09,3412.83,3285.99,3572.00,500.14,494.68,13.80,0000 0000 0000 0000 000000
2014-06-21 02:43:15,0.01,0.16,0.00,22.71,26.95,29.42,9.50,39.48,1010.77,2041.08,3412.17,3285.98,3571.98,499.58,493.89,13.85,0000 0000 0000 0000 000000
2014-06-21 02:48:16,0.00,0.16,0.00,22.73,26.95,29.42,9.57,39.38,1010.77,2041.07,3412.04,3285.98,3571.97,500.15,494.44,13.89,0000 0000 0000 0000 000000
2014-06-21 02:53:17,0.00,0.16,0.00,22.68,26.95,29.40,9.49,39.36,1010.75,2041.08,3412.01,3285.93,3571.96,500.03,494.38,13.93,0000 0000 0000 0000 000000
2014-06-21 02:58:18,0.01,0.16,0.00,22.63,26.95,29.42,9.50,39.37,1010.32,2041.09,3412.00,3285.81,3571.92,499.93,494.04,13.97,0000 0000 0000 0000 000000
2014-06-21 03:03:20,0.01,0.16,0.00,22.66,26.95,29.42,9.55,39.50,1010.29,2041.10,3412.00,3285.57,3571.83,500.16,494.44,14.01,0000 0000 0000 0000 000000
2014-06-21 03:08:21,0.02,0.16,0.00,22.69,26.95,29.41,9.57,39.38,1010.30,2041.17,3411.99,3285.33,3571.56,499.85,494.03,14.06,0000 0000 0000 0000 000000
2014-06-21 03:13:22,0.01,0.16,0.00,22.72,26.95,29.42,9.51,39.32,1010.31,2041.16,3411.98,3285.09,3571.28,499.89,493.93,14.10,0000 0000 0000 0000 000000
2014-06-21 03:18:23,0.03,0.16,0.00,22.70,26.96,29.41,9.49,39.37,1010.29,2041.31,3411.98,3285.08,3571.22,499.95,494.14,14.14,0000 0000 0000 0000 000000
2014-06-21 03:23:25,0.01,0.16,0.00,22.64,26.97,29.42,9.54,39.33,1010.27,2041.44,3411.98,3285.06,3571.14,499.91,494.25,14.18,0000 0000 0000 0000 000000
2014-06-21 03:28:26,0.01,0.16,0.00,22.63,26.97,29.43,9.54,39.40,1010.24,2041.45,3411.67,3285.02,3571.05,499.93,494.13,14.22,0000 0000 0000 0000 000000
2014-06-21 03:33:26,0.04,0.16,0.00,22.64,26.97,29.43,9.54,39.32,1010.13,2041.60,3411.16,3285.00,3571.01,499.85,494.02,14.26,0000 0000 0000 0000 000000
2014-06-21 03:38:27,-0.03,0.16,0.00,22.64,26.97,29.43,9.63,39.34,1010.26,2041.42,3411.01,3284.99,3571.00,500.38,494.66,14.31,0000 0000 0000 0000 000000
2014-06-21 03:43:28,-0.01,0.16,0.00,22.63,26.99,29.42,9.57,39.28,1010.08,2041.25,3411.00,3284.94,3570.82,500.10,494.27,14.35,0000 0000 0000 0000 000000
2014-06-21 03:48:30,0.05,0.16,0.00,22.67,27.00,29.45,9.61,39.27,1009.83,2041.27,3410.69,3284.53,3570.46,500.07,493.92,14.39,0000 0000 0000 0000 000000
2014-06-21 03:53:31,-0.01,0.16,0.00,22.68,27.00,29.44,9.54,39.18,1009.80,2041.05,3410.05,3284.01,3570.00,500.19,494.06,14.43,0000 0000 0000 0000 000000
2014-06-21 03:58:32,0.10,0.17,0.00,22.67,27.00,29.43,9.55,39.42,1009.79,2041.04,3409.33,3282.99,3568.90,500.10,493.83,14.47,0000 0000 0000 0000 000000
2014-06-21 04:03:33,0.02,0.17,0.00,22.65,27.01,29.43,9.53,39.38,1009.79,2041.04,3408.60,3282.01,3567.97,500.14,494.13,14.51,0000 0000 0000 0000 000000
2014-06-21 04:08:34,0.01,0.17,0.00,22.66,27.02,29.43,9.52,39.34,1009.78,2041.03,3408.09,3281.99,3567.80,499.90,493.80,14.56,0000 0000 0000 0000 000000
2014-06-21 04:13:35,0.01,0.17,0.00,22.65,27.02,29.44,9.45,39.32,1009.72,2041.04,3408.01,3281.98,3567.32,499.66,493.61,14.60,0000 0000 0000 0000 000000
2014-06-21 04:18:36,0.00,0.17,0.00,22.67,27.02,29.44,9.54,39.31,1009.71,2041.04,3408.00,3281.92,3567.06,499.83,493.70,14.64,0000 0000 0000 0000 000000
2014-06-21 04:23:37,0.02,0.17,0.00,22.68,27.03,29.44,9.57,39.35,1009.77,2041.04,3407.97,3281.51,3567.01,500.00,493.84,14.68,0000 0000 0000 0000 000000
2014-06-21 04:28:39,0.01,0.17,0.00,22.67,27.04,29.45,9.51,39.24,1009.71,2041.02,3407.54,3281.05,3566.98,500.16,494.14,14.72,0000 0000 0000 0000 000000
2014-06-21 04:33:40,0.01,0.17,0.00,22.66,27.05,29.45,9.55,39.38,1009.43,2041.01,3407.07,3281.00,3566.88,500.42,494.24,14.77,0000 0000 0000 0000 000000
2014-06-21 04:38:41,-0.00,0.17,0.00,22.66,27.05,29.45,9.51,39.23,1009.52,2041.01,3407.03,3281.00,3566.71,500.01,493.74,14.81,0000 0000 0000 0000 000000
2014-06-21 04:43:42,0.01,0.17,0.00,22.70,27.05,29.46,9.64,39.45,1009.65,2041.00,3407.00,3280.99,3566.21,500.65,494.40,14.85,0000 0000 0000 0000 000000
2014-06-21 04:48:43,0.00,0.17,0.00,22.70,27.07,29.46,9.55,39.23,1009.40,2041.00,3406.99,3280.96,3566.02,499.78,493.46,14.89,0000 0000 0000 0000 000000
2014-06-21 04:53:44,0.00,0.17,0.00,22.69,27.07,29.47,9.62,39.32,1009.32,2041.00,3406.95,3280.95,3566.02,500.39,494.09,14.93,0000 0000 0000 0000 000000
2014-06-21 04:58:45,0.03,0.17,0.00,22.69,27.07,29.47,9.47,39.27,1009.30,2041.00,3406.48,3280.63,3566.00,500.30,493.87,14.97,0000 0000 0000 0000 000000
2014-06-21 05:03:46,0.01,0.17,0.00,22.66,27.07,29.49,9.56,39.20,1009.30,2041.00,3406.03,3280.14,3565.99,500.16,493.92,15.02,0000 0000 0000 0000 000000
2014-06-21 05:08:47,0.00,0.17,0.00,22.68,27.08,29.50,9.59,39.09,1009.29,2041.00,3406.00,3280.01,3565.89,499.82,493.62,15.06,0000 0000 0000 0000 000000
2014-06-21 05:13:48,0.01,0.17,0.00,22.67,27.10,29.50,9.48,39.24,1009.26,2041.01,3405.97,3280.00,3565.53,499.94,493.59,15.10,0000 0000 0000 0000 000000
2014-06-21 05:18:50,0.01,0.18,0.00,22.72,27.10,29.49,9.57,39.27,1009.29,2041.00,3405.62,3279.98,3565.05,500.23,494.14,15.14,0000 0000 0000 0000 000000
2014-06-21 05:23:51,0.05,0.18,0.00,22.71,27.10,29.50,9.47,39.04,1009.26,2041.00,3405.06,3279.39,3564.44,499.83,493.40,15.18,0000 0000 0000 0000 000000
2014-06-21 05:28:52,0.01,0.18,0.00,22.71,27.12,29.51,9.54,38.84,1009.23,2041.00,3404.90,3278.98,3564.00,500.06,493.58,15.23,0000 0000 0000 0000 000000
2014-06-21 05:33:53,0.00,0.18,0.00,22.72,27.12,29.52,9.55,39.08,1009.11,2041.00,3404.86,3278.95,3564.00,500.27,493.79,15.27,0000 0000 0000 0000 000000
2014-06-21 05:38:54,0.03,0.18,0.00,22.72,27.13,29.52,9.56,39.02,1009.02,2041.00,3404.44,3278.63,3563.93,500.08,493.47,15.31,0000 0000 0000 0000 000000
2014-06-21 05:43:55,0.01,0.18,0.00,22.73,27.14,29.53,9.60,39.21,1009.10,2040.99,3404.01,3278.07,3563.57,499.98,493.58,15.35,0000 0000 0000 0000 000000
2014-06-21 05:48:56,0.00,0.18,0.00,22.73,27.15,29.54,9.43,39.04,1008.86,2040.99,3404.00,3278.01,3563.11,499.97,493.33,15.39,0000 0000 0000 0000 000000
2014-06-21 05:53:57,0.00,0.18,0.00,22.75,27.15,29.53,9.60,39.07,1008.81,2040.99,3404.00,3278.00,3563.01,500.05,493.39,15.43,0000 0000 0000 0000 000000
2014-06-21 05:58:58,0.00,0.18,0.00,22.79,27.15,29.53,9.50,39.17,1008.80,2040.98,3403.98,3278.00,3563.00,499.86,493.24,15.48,0000 0000 0000 0000 000000
2014-06-21 06:03:59,0.00,0.18,0.00,22.80,27.16,29.55,9.52,39.10,1008.80,2040.98,3403.99,3278.00,3563.00,500.44,493.48,15.52,0000 0000 0000 0000 000000
2014-06-21 06:09:00,-0.00,0.18,0.00,22.80,27.17,29.54,9.55,39.15,1008.80,2040.97,3403.96,3278.00,3563.00,499.99,493.16,15.56,0000 0000 0000 0000 000000
2014-06-21 06:14:01,0.00,0.18,0.00,22.83,27.17,29.55,9.45,39.26,1008.80,2040.97,3403.88,3277.98,3562.99,499.84,492.94,15.60,0000 0000 0000 0000 000000
2014-06-21 06:19:02,0.01,0.18,0.00,22.84,27.17,29.55,9.50,39.26,1008.80,2040.96,3403.42,3277.96,3562.97,500.01,493.12,15.64,0000 0000 0000 0000 000000
2014-06-21 06:24:03,0.02,0.18,0.00,22.86,27.17,29.55,9.48,39.23,1008.77,2040.96,3403.03,3277.77,3562.76,499.66,492.81,15.69,0000 0000 0000 0000 000000
2014-06-21 06:29:04,0.01,0.18,0.00,22.86,27.17,29.55,9.50,39.18,1008.66,2040.92,3403.00,3277.33,3562.28,499.87,492.97,15.73,0000 0000 0000 0000 000000
2014-06-21 06:34:05,0.01,0.18,0.00,22.89,27.17,29.56,9.51,39.21,1008.35,2040.92,3402.99,3277.10,3562.08,500.00,492.88,15.77,0000 0000 0000 0000 000000
2014-06-21 06:39:07,-0.01,0.18,0.00,22.90,27.17,29.56,9.49,39.28,1008.33,2040.85,3402.97,3277.04,3562.02,500.18,493.09,15.81,0000 0000 0000 0000 000000
2014-06-21 06:44:08,-0.01,0.18,0.00,22.92,27.17,29.57,9.52,39.15,1008.33,2040.84,3402.95,3277.03,3562.02,500.38,493.30,15.85,0000 0000 0000 0000 000000
2014-06-21 06:49:09,-0.00,0.18,0.00,22.93,27.17,29.57,9.51,39.12,1008.32,2040.66,3402.60,3277.01,3562.00,499.99,492.70,15.89,0000 0000 0000 0000 000000
2014-06-21 06:54:10,-0.01,0.18,0.00,22.94,27.17,29.58,9.44,39.03,1008.32,2040.59,3402.26,3277.00,3562.00,499.75,492.62,15.94,0000 0000 0000 0000 000000
2014-06-21 06:59:11,0.03,0.18,0.00,22.95,27.17,29.58,9.45,39.17,1008.32,2040.78,3402.02,3276.99,3561.98,500.36,493.06,15.98,0000 0000 0000 0000 000000
2014-06-21 07:04:12,0.00,0.18,0.00,22.96,27.18,29.59,9.57,39.23,1008.31,2040.86,3401.98,3276.94,3561.73,500.11,492.93,16.02,0000 0000 0000 0000 000000
2014-06-21 07:09:13,0.01,0.18,0.00,22.96,27.19,29.59,9.51,39.08,1008.31,2040.78,3401.90,3276.73,3561.28,499.94,492.44,16.06,0000 0000 0000 0000 000000
2014-06-21 07:14:14,0.04,0.19,0.00,22.98,27.20,29.60,9.50,39.14,1008.31,2040.89,3401.42,3276.42,3561.10,499.64,492.41,16.10,0000 0000 0000 0000 000000
2014-06-21 07:19:15,-0.00,0.19,0.00,23.00,27.20,29.61,9.55,39.13,1008.31,2040.85,3401.17,3276.15,3561.04,500.58,493.14,16.15,0000 0000 0000 0000 000000
2014-06-21 07:24:16,-0.00,0.19,0.00,23.00,27.20,29.61,9.54,39.08,1008.31,2040.76,3401.05,3276.06,3561.00,499.95,492.66,16.19,0000 0000 0000 0000 000000
2014-06-21 07:29:17,0.00,0.19,0.00,23.01,27.20,29.61,9.62,38.96,1008.31,2040.76,3401.01,3276.03,3561.00,500.51,493.06,16.23,0000 0000 0000 0000 000000
2014-06-21 07:34:18,0.00,0.19,0.00,23.00,27.20,29.63,9.55,39.01,1008.31,2040.76,3401.00,3276.00,3561.00,500.50,492.78,16.27,0000 0000 0000 0000 000000
2014-06-21 07:39:19,0.00,0.19,0.00,23.00,27.20,29.63,9.59,39.01,1008.31,2040.82,3400.95,3276.00,3560.98,500.27,493.00,16.31,0000 0000 0000 0000 000000
2014-06-21 07:44:20,-0.00,0.19,0.00,23.00,27.20,29.64,9.46,38.98,1008.31,2040.82,3400.66,3276.00,3560.95,499.74,492.36,16.36,0000 0000 0000 0000 000000
2014-06-21 07:49:22,0.02,0.19,0.00,22.99,27.21,29.64,9.38,38.84,1008.31,2040.77,3400.14,3275.99,3560.73,500.08,492.72,16.40,0000 0000 0000 0000 000000
2014-06-21 07:54:23,0.01,0.19,0.00,23.01,27.22,29.65,9.61,38.91,1008.31,2040.82,3400.08,3275.98,3560.33,500.12,492.62,16.44,0000 0000 0000 0000 000000
2014-06-21 07:59:24,0.00,0.19,0.00,23.00,27.22,29.66,9.48,38.78,1008.31,2040.80,3400.01,3275.81,3560.12,500.09,492.48,16.48,0000 0000 0000 0000 000000
2014-06-21 08:04:25,0.02,0.19,0.00,23.00,27.22,29.66,9.38,38.82,1008.32,2040.83,3399.99,3275.39,3560.03,499.53,492.07,16.52,0000 0000 0000 0000 000000
2014-06-21 08:09:26,0.02,0.19,0.00,23.02,27.22,29.68,9.52,38.79,1008.32,2040.86,3399.77,3275.06,3560.00,500.32,492.84,16.56,0000 0000 0000 0000 000000
2014-06-21 08:14:27,0.01,0.19,0.00,23.00,27.22,29.67,9.60,39.07,1008.32,2040.91,3399.06,3275.00,3559.98,500.45,493.25,16.61,0000 0000 0000 0000 000000
2014-06-21 08:19:28,0.00,0.19,0.00,23.00,27.24,29.68,9.46,38.98,1008.32,2040.91,3398.93,3274.99,3559.83,499.83,492.40,16.65,0000 0000 0000 0000 000000
2014-06-21 08:24:29,0.02,0.19,0.00,22.99,27.25,29.69,9.57,39.11,1008.32,2040.96,3398.65,3274.90,3559.18,500.42,492.92,16.69,0000 0000 0000 0000 000000
2014-06-21 08:29:31,0.03,0.19,0.00,22.97,27.25,29.69,9.32,39.08,1008.33,2040.98,3398.07,3274.41,3559.02,499.23,491.78,16.73,0000 0000 0000 0000 000000
2014-06-21 08:34:32,0.00,0.19,0.00,22.97,27.25,29.70,9.48,39.21,1008.32,2040.97,3398.00,3274.04,3558.99,499.96,492.65,16.77,0000 0000 0000 0000 000000
2014-06-21 08:39:32,0.04,0.19,0.00,22.98,27.25,29.70,9.53,39.27,1008.32,2040.97,3397.44,3273.83,3558.40,499.99,492.87,16.82,0000 0000 0000 0000 000000
2014-06-21 08:44:33,0.08,0.20,0.00,22.99,27.27,29.71,9.52,39.20,1008.32,2040.97,3395.88,3272.80,3557.32,499.87,492.54,16.86,0000 0000 0000 0000 000000
2014-06-21 08:49:35,0.03,0.20,0.00,22.97,27.27,29.70,9.45,39.17,1008.32,2040.97,3395.01,3272.03,3556.60,499.75,492.26,16.90,0000 0000 0000 0000 000000
2014-06-21 08:54:35,0.03,0.20,0.00,22.98,27.27,29.71,9.53,39.15,1008.33,2040.96,3394.32,3271.77,3556.03,499.82,492.47,16.94,0000 0000 0000 0000 000000
2014-06-21 08:59:37,0.05,0.20,0.00,22.98,27.28,29.72,9.56,39.19,1008.33,2040.97,3393.50,3271.05,3555.49,500.26,492.89,16.98,0000 0000 0000 0000 000000
2014-06-21 09:04:38,0.06,0.20,0.00,22.97,27.30,29.72,9.56,39.17,1008.33,2040.96,3392.37,3270.29,3554.63,500.20,492.76,17.03,0000 0000 0000 0000 000000
2014-06-21 09:09:39,0.10,0.21,0.00,22.97,27.30,29.72,9.64,39.38,1008.33,2040.97,3390.38,3268.84,3553.05,500.38,493.12,17.07,0000 0000 0000 0000 000000
2014-06-21 09:14:40,0.10,0.21,0.00,22.96,27.30,29.74,9.55,39.50,1008.32,2040.93,3388.22,3267.46,3551.62,500.13,493.04,17.11,0000 0000 0000 0000 000000
2014-06-21 09:19:41,0.09,0.22,0.00,22.94,27.30,29.74,9.56,39.43,1008.33,2040.94,3386.23,3266.22,3550.23,499.98,492.82,17.15,0000 0000 0000 0000 000000
2014-06-21 09:24:42,0.12,0.22,0.00,22.94,27.32,29.75,9.51,39.21,1008.33,2040.94,3384.06,3264.78,3548.70,500.17,492.84,17.19,0000 0000 0000 0000 000000
2014-06-21 09:29:43,0.14,0.23,0.00,22.94,27.32,29.75,9.46,39.20,1008.33,2040.78,3380.84,3262.81,3546.52,500.08,492.83,17.24,0000 0000 0000 0000 000000
2014-06-21 09:34:45,0.07,0.23,0.00,22.92,27.32,29.75,9.48,39.18,1008.33,2040.51,3378.29,3261.33,3544.76,500.02,492.86,17.28,0000 0000 0000 0000 000000
2014-06-21 09:39:46,0.12,0.24,0.00,22.93,27.32,29.75,9.50,39.02,1008.32,2040.54,3376.16,3259.93,3543.36,500.15,492.90,17.32,0000 0000 0000 0000 000000
2014-06-21 09:44:47,0.08,0.24,0.00,22.93,27.32,29.76,9.51,39.09,1008.34,2040.36,3373.89,3258.46,3541.81,500.10,492.99,17.36,0000 0000 0000 0000 000000
2014-06-21 09:49:48,0.05,0.24,0.00,22.91,27.32,29.76,9.38,39.09,1008.40,2040.32,3372.50,3257.69,3540.90,499.66,492.49,17.40,0000 0000 0000 0000 000000
2014-06-21 09:54:49,0.07,0.25,0.00,22.90,27.33,29.77,9.61,39.17,1008.38,2040.34,3371.38,3256.96,3540.06,500.28,493.11,17.44,0000 0000 0000 0000 000000
2014-06-21 09:59:51,0.04,0.25,0.00,22.91,27.33,29.76,9.54,38.90,1008.63,2040.31,3370.12,3256.09,3539.21,499.74,492.76,17.49,0000 0000 0000 0000 000000
2014-06-21 10:04:52,0.16,0.25,0.00,22.90,27.33,29.76,9.40,38.88,1008.71,2040.26,3367.20,3254.44,3537.45,499.58,492.92,17.53,0000 0000 0000 0000 000000
2014-06-21 10:09:53,0.13,0.26,0.00,22.90,27.34,29.77,9.50,38.82,1008.72,2040.16,3363.95,3252.62,3535.58,499.86,492.78,17.57,0000 0000 0000 0000 000000
2014-06-21 10:14:55,0.01,0.26,0.00,22.92,27.34,29.77,9.47,38.93,1008.78,2040.06,3362.87,3251.99,3534.84,499.72,492.52,17.61,0000 0000 0000 0000 000000
2014-06-21 10:19:56,0.00,0.26,0.00,22.91,27.34,29.77,9.55,39.16,1008.80,2040.03,3362.80,3251.96,3534.53,500.00,493.03,17.65,0000 0000 0000 0000 000000
2014-06-21 10:24:57,0.01,0.26,0.00,22.89,27.34,29.77,9.50,39.60,1008.78,2040.00,3362.45,3251.88,3534.16,500.04,493.08,17.70,0000 0000 0000 0000 000000
2014-06-21 10:29:58,0.01,0.26,0.00,22.89,27.33,29.77,9.58,39.52,1008.80,2040.01,3362.26,3251.83,3534.11,500.20,493.34,17.74,0000 0000 0000 0000 000000
2014-06-21 10:34:59,0.01,0.26,0.00,22.87,27.33,29.76,9.58,39.48,1008.80,2040.01,3362.03,3251.53,3534.04,500.13,493.22,17.78,0000 0000 0000 0000 000000
2014-06-21 10:40:00,0.01,0.26,0.00,22.87,27.32,29.76,9.48,39.32,1008.80,2040.02,3361.93,3251.10,3534.00,500.21,493.28,17.82,0000 0000 0000 0000 000000
2014-06-21 10:45:01,0.01,0.27,0.00,22.85,27.32,29.77,9.51,39.14,1008.80,2040.02,3361.22,3251.00,3533.99,499.79,492.92,17.86,0000 0000 0000 0000 000000
2014-06-21 10:50:03,0.02,0.27,0.00,22.85,27.32,29.77,9.61,39.18,1008.80,2040.03,3360.83,3250.96,3533.39,500.22,493.26,17.91,0000 0000 0000 0000 000000
2014-06-21 10:55:04,0.02,0.27,0.00,22.85,27.32,29.76,9.50,39.25,1008.81,2040.04,3360.16,3250.70,3533.04,499.74,492.88,17.95,0000 0000 0000 0000 000000
2014-06-21 11:00:05,0.03,0.27,0.00,22.86,27.32,29.76,9.50,39.06,1008.80,2040.08,3359.71,3250.06,3532.93,499.94,493.12,17.99,0000 0000 0000 0000 000000
2014-06-21 11:05:06,0.02,0.27,0.00,22.83,27.32,29.75,9.54,39.23,1008.80,2040.10,3358.93,3249.87,3532.24,500.07,493.30,18.03,0000 0000 0000 0000 000000
2014-06-21 11:10:07,0.10,0.27,0.00,22.82,27.32,29.76,9.45,38.96,1008.80,2040.24,3357.60,3248.95,3531.54,500.14,493.38,18.07,0000 0000 0000 0000 000000
2014-06-21 11:15:08,0.14,0.28,0.00,22.82,27.32,29.76,9.51,39.02,1008.80,2040.85,3355.78,3248.03,3530.37,500.33,493.61,18.12,0000 0000 0000 0000 000000
2014-06-21 11:20:09,0.07,0.28,0.00,22.80,27.31,29.75,9.58,39.08,1008.78,2040.95,3354.51,3247.15,3529.49,499.91,493.11,18.16,0000 0000 0000 0000 000000
2014-06-21 11:25:11,0.04,0.29,0.00,22.80,27.30,29.75,9.55,38.86,1008.78,2040.98,3353.41,3246.67,3528.95,499.98,493.07,18.20,0000 0000 0000 0000 000000
2014-06-21 11:30:12,0.01,0.29,0.00,22.81,27.30,29.76,9.46,38.90,1008.78,2040.99,3353.02,3246.21,3528.70,500.15,493.40,18.24,0000 0000 0000 0000 000000
2014-06-21 11:35:13,0.00,0.29,0.00,22.80,27.30,29.74,9.53,38.93,1008.79,2040.98,3353.00,3246.05,3528.34,499.91,493.20,18.28,0000 0000 0000 0000 000000
2014-06-21 11:40:14,-0.00,0.29,0.00,22.78,27.30,29.74,9.54,38.84,1008.67,2040.99,3353.00,3246.10,3528.57,500.03,493.23,18.33,0000 0000 0000 0000 000000
2014-06-21 11:45:15,-0.00,0.29,0.00,22.77,27.29,29.74,9.51,39.00,1008.48,2040.99,3352.98,3246.21,3528.71,499.92,492.85,18.37,0000 0000 0000 0000 000000
2014-06-21 11:50:17,0.09,0.29,0.00,22.77,27.27,29.73,9.45,38.74,1008.44,2040.99,3351.65,3245.43,3527.45,499.65,492.69,18.41,0000 0000 0000 0000 000000
2014-06-21 11:55:18,0.01,0.29,0.00,22.77,27.27,29.74,9.50,38.94,1008.38,2040.99,3350.95,3244.99,3526.86,499.89,492.89,18.45,0000 0000 0000 0000 000000
2014-06-21 12:00:19,0.00,0.29,0.00,22.75,27.27,29.73,9.57,38.88,1008.44,2040.99,3350.94,3244.98,3526.86,500.56,493.70,18.49,0000 0000 0000 0000 000000
2014-06-21 12:05:20,0.00,0.29,0.00,22.74,27.27,29.73,9.53,38.92,1008.33,2040.99,3350.97,3244.98,3526.89,500.09,493.09,18.53,0000 0000 0000 0000 000000
2014-06-21 12:10:21,-0.00,0.29,0.00,22.75,27.25,29.72,9.45,38.71,1008.32,2040.99,3350.97,3244.97,3526.84,499.94,492.97,18.58,0000 0000 0000 0000 000000
2014-06-21 12:15:22,-0.00,0.29,0.00,22.74,27.25,29.70,9.48,39.36,1008.31,2040.99,3350.96,3244.98,3526.85,499.44,492.67,18.62,0000 0000 0000 0000 000000
2014-06-21 12:20:23,0.00,0.29,0.00,22.72,27.25,29.70,9.51,39.37,1008.30,2040.99,3350.97,3244.98,3526.76,499.93,492.97,18.66,0000 0000 0000 0000 000000
2014-06-21 12:25:24,0.00,0.29,0.00,22.69,27.23,29.70,9.49,39.38,1008.23,2040.99,3350.94,3244.97,3526.73,499.64,492.79,18.70,0000 0000 0000 0000 000000
2014-06-21 12:30:25,-0.00,0.29,0.00,22.67,27.22,29.68,9.51,39.35,1008.30,2040.99,3350.84,3244.97,3526.62,499.76,492.94,18.74,0000 0000 0000 0000 000000
2014-06-21 12:35:26,0.01,0.29,0.00,22.67,27.22,29.67,9.44,39.38,1008.31,2040.99,3350.50,3244.95,3526.32,499.93,493.17,18.79,0000 0000 0000 0000 000000
2014-06-21 12:40:28,0.01,0.29,0.00,22.69,27.21,29.68,9.57,39.27,1008.31,2041.00,3350.25,3244.87,3526.14,500.24,493.30,18.83,0000 0000 0000 0000 000000
2014-06-21 12:45:29,0.01,0.29,0.00,22.71,27.20,29.69,9.49,39.02,1008.31,2041.00,3350.09,3244.76,3526.04,499.84,492.73,18.87,0000 0000 0000 0000 000000
2014-06-21 12:50:31,0.01,0.29,0.00,22.71,27.20,29.66,9.51,38.86,1008.31,2041.00,3350.03,3244.67,3526.02,500.00,493.11,18.91,0000 0000 0000 0000 000000
2014-06-21 12:55:31,-0.01,0.29,0.00,22.69,27.20,29.65,9.52,38.73,1008.39,2041.00,3350.04,3244.77,3526.03,500.23,493.43,18.95,0000 0000 0000 0000 000000
2014-06-21 13:00:32,0.01,0.29,0.00,22.67,27.18,29.63,9.50,38.94,1008.67,2041.00,3350.01,3244.63,3526.01,499.52,492.91,19.00,0000 0000 0000 0000 000000